Satellite-Ground Cal/Val Site Overpasses Predictions

Prediction of Satellite NPP Overpassing Cal/Val Site: Antarctic Dome C

Ground Cal/Val Site Location: Latitude: -75.10, Longitude: 123.35; Satellite-Ground Site NADIR distance within 100 km.

Table of predicted overpasses for the next 14.0 days since TLE Epoch: 12/31/2022
Interval Starting Time Ending Time Minimum Distance Time Minimum Distance (km)
1 12/31/2022 07:38:58 12/31/2022 07:39:25 12/31/2022 07:39:11 32.79
2 01/01/2023 07:20:14 01/01/2023 07:20:32 01/01/2023 07:20:23 77.34
3 01/03/2023 15:02:31 01/03/2023 15:02:54 01/03/2023 15:02:43 60.71
4 01/04/2023 14:43:41 01/04/2023 14:44:06 01/04/2023 14:43:53 48.52
5 01/05/2023 07:45:23 01/05/2023 07:45:44 01/05/2023 07:45:33 68.13
6 01/06/2023 07:26:31 01/06/2023 07:26:58 01/06/2023 07:26:44 39.88
7 01/08/2023 15:09:02 01/08/2023 15:09:06 01/08/2023 15:09:04 98.59
8 01/09/2023 14:50:00 01/09/2023 14:50:30 01/09/2023 14:50:15 12.60
